[[{"header":{"parameterUnit":"m.s-1","parameterCategory":1,"la1":30.2991,"la2":30.254,"lo1":-89.0895,"lo2":-89.0444,"dy":0.0017,"dx":0.0017,"nx":28,"ny":28,"refTime":"2025-07-04T03:00:00:Z","depth":0,"parameterNumber":2,"parameterNumberName":"U-component_of_WINDS"},"data":[0,0,0,0,0,0,0,0,0,0,0,0,0,0,0,0,0,0,0,0,0,0,0,0,0,0,0,0,0,0,0,0,0,0,0,0,0,0,0,0,0,0,0,0,0,0,0,0,0,0,0,0,0,0,0,0,0,0,-1.7972,-1.7972,0,-1.7922,-1.7921,-1.7921,-1.7884,-1.7884,-1.7883,-1.7883,-1.7831,-1.783,-1.7829,0,0,0,0,0,0,0,0,0,0,0,0,0,-1.804,-1.8039,-1.7972,-1.7972,-1.7971,-1.7922,-1.7921,-1.792,-1.7884,-1.7884,-1.7883,-1.7883,-1.7832,-1.783,-1.7829,0,0,0,0,0,0,0,0,0,0,0,0,0,-1.8002,-1.8039,-1.7972,-1.7947,-1.7944,-1.7922,-1.7921,-1.792,-1.7884,-1.7884,-1.7883,-1.7883,-1.7832,-1.7831,-1.7829,-1.7828,0,0,-1.7824,-1.7823,0,0,0,0,0,0,0,0,-1.8004,-1.8,-1.7951,-1.7949,-1.7946,-1.7909,-1.7926,-1.7889,-1.7884,-1.7907,-1.7883,-1.7883,-1.7858,-1.7854,-1.7845,-1.7825,-1.7823,-1.7824,-1.7823,-1.7822,-1.7822,0,0,0,0,0,0,0,-1.8007,-1.8002,-1.7952,-1.7951,-1.7947,-1.7939,-1.7933,-1.7919,-1.7885,-1.7905,-1.7902,-1.7897,-1.7856,-1.7847,-1.7844,-1.7822,-1.7824,-1.7822,-1.7821,-1.7821,-1.7803,-1.7804,0,0,0,0,0,0,-1.8013,-1.8004,-1.7954,-1.7951,-1.7974,-1.7938,-1.7932,-1.7921,-1.7885,-1.788,-1.7897,-1.7895,-1.785,-1.7846,-1.7842,-1.784,-1.7822,-1.7821,-1.782,-1.7803,-1.7803,-1.7804,0,0,0,0,0,0,-1.8015,-1.8009,-1.7956,-1.7977,-1.7969,-1.7937,-1.7926,-1.792,-1.7911,-1.788,-1.7874,-1.7894,-1.7849,-1.7844,-1.7832,-1.7838,-1.782,-1.7818,-1.7802,-1.7803,-1.7803,-1.7836,0,0,0,0,0,0,-1.8017,-1.801,-1.8008,-1.7977,-1.7968,-1.7947,-1.7926,-1.792,-1.7909,-1.7905,-1.7875,-1.787,-1.7849,-1.7835,-1.7831,-1.7835,-1.7817,-1.7801,-1.7802,-1.7803,-1.7834,-1.7837,-1.784,0,0,0,0,0,-1.802,-1.8019,-1.8008,-1.8003,-1.7966,-1.7947,-1.7942,-1.7918,-1.7909,-1.7908,-1.7888,-1.787,-1.7838,-1.7834,-1.7829,-1.7833,-1.7801,-1.7802,-1.7803,-1.7832,-1.7837,-1.784,0,0,0,0,0,0,-1.805,-1.8014,-1.8002,-1.7991,-1.7973,-1.7941,-1.7938,-1.7923,-1.7906,-1.7904,-1.7875,-1.7869,-1.7861,-1.7846,-1.7842,-1.7832,-1.7818,-1.7818,-1.7842,-1.7845,-1.7849,-1.7852,-1.7816,0,0,0,0,0,-1.8056,-1.8043,-1.8012,-1.8006,-1.7997,-1.797,-1.796,-1.7944,-1.7924,-1.7915,-1.7895,-1.7876,-1.7862,-1.7853,-1.7838,-1.7832,-1.7826,-1.7833,-1.7836,-1.7839,-1.7839,-1.7838,-1.7841,-1.7808,-1.7808,-1.7808,0,0,-1.8067,-1.8046,-1.8039,-1.8011,-1.7995,-1.7984,-1.7963,-1.7951,-1.7943,-1.7913,-1.7901,-1.7886,-1.7864,-1.7856,-1.7851,-1.7843,-1.7848,-1.784,-1.7843,-1.7841,-1.784,-1.7843,-1.7846,-1.7808,-1.7808,-1.7808,0,0,-1.8081,-1.8063,-1.8057,-1.8042,-1.8018,-1.8001,-1.7999,-1.7971,-1.796,-1.7948,-1.7926,-1.7917,-1.7892,-1.7878,-1.7868,-1.7882,-1.7866,-1.7878,-1.7894,-1.7893,-1.7896,-1.7898,-1.7905,-1.7907,-1.7878,-1.7879,-1.7879,0,-1.8097,-1.8079,-1.8055,-1.8046,-1.8035,-1.801,-1.8004,-1.7991,-1.7963,-1.7957,-1.7949,-1.792,-1.7903,-1.7893,-1.7897,-1.7889,-1.7888,-1.788,-1.7898,-1.79,-1.7901,-1.7907,-1.791,-1.788,-1.788,-1.788,-1.788,0,-1.8102,-1.809,-1.8088,-1.8063,-1.8053,-1.8045,-1.8021,-1.8014,-1.7999,-1.7983,-1.7973,-1.7952,-1.7934,-1.7931,-1.7916,-1.7919,-1.7916,-1.7903,-1.7888,-1.7907,-1.7912,-1.7914,-1.7883,-1.7882,-1.7881,-1.7881,0,0,-1.813,-1.8096,-1.8096,-1.8086,-1.806,-1.805,-1.8043,-1.8026,-1.8021,-1.8005,-1.7999,-1.7981,-1.797,-1.7958,-1.7942,-1.7942,-1.7957,-1.7929,-1.7929,-1.7936,-1.7962,-1.7972,-1.7975,-1.7947,-1.7947,-1.7947,-1.7965,0,-1.8141,-1.8126,-1.8106,-1.8098,-1.8089,-1.8067,-1.8061,-1.8045,-1.8031,-1.8022,-1.8006,-1.7994,-1.798,-1.7974,-1.7972,-1.7955,-1.7962,-1.7954,-1.7942,-1.7942,-1.7948,-1.7977,-1.7986,-1.8003,-1.7966,-1.7966,-1.7967,0,-1.815,-1.8137,-1.8128,-1.8107,-1.8102,-1.8096,-1.8081,-1.8072,-1.8055,-1.8045,-1.8034,-1.8018,-1.8011,-1.7999,-1.799,-1.7985,-1.798,-1.7972,-1.7972,-1.7969,-1.7955,-1.7976,-1.8008,-1.8011,-1.7969,-1.7969,-1.7969,0,-1.8174,-1.8153,-1.8146,-1.8138,-1.8112,-1.811,-1.8099,-1.8082,-1.8074,-1.8061,-1.8056,-1.8043,-1.8035,-1.8026,-1.8008,-1.8,-1.8002,-1.7987,-1.7994,-1.7995,-1.7995,-1.7995,-1.8027,-1.7991,-1.7991,-1.7991,-1.7991,0,-1.8187,-1.8183,-1.8157,-1.8152,-1.8148,-1.8127,-1.8124,-1.8111,-1.8097,-1.8091,-1.8071,-1.8066,-1.8042,-1.8035,-1.802,-1.8017,-1.8013,-1.8006,-1.8002,-1.8008,-1.8009,-1.8003,-1.8002,-1.7992,-1.7992,-1.7992,-1.7992,0,-1.8212,-1.8193,-1.8185,-1.8162,-1.8157,-1.8155,-1.8136,-1.8132,-1.8119,-1.8112,-1.8109,-1.8087,-1.8078,-1.8059,-1.8045,-1.8035,-1.8035,-1.8028,-1.8041,-1.8039,-1.8048,-1.8048,-1.8077,-1.808,-1.8043,-1.8043,-1.8044,0,-1.8221,-1.8218,-1.8197,-1.8192,-1.8182,-1.8174,-1.8167,-1.8147,-1.8141,-1.8124,-1.8122,-1.8112,-1.8102,-1.8089,-1.8073,-1.8063,-1.8056,-1.8067,-1.8054,-1.8061,-1.8057,-1.8058,-1.8058,-1.8069,-1.807,-1.807,-1.8071,0,-1.8241,-1.8233,-1.8223,-1.8212,-1.8205,-1.8194,-1.8183,-1.818,-1.8158,-1.8153,-1.8144,-1.8137,-1.8124,-1.8114,-1.8102,-1.8092,-1.8079,-1.8075,-1.8077,-1.8082,-1.809,-1.8087,-1.8049,-1.8074,-1.8074,-1.8074,-1.8073,-1.8073,-1.8258,-1.8256,-1.8241,-1.8232,-1.8223,-1.8214,-1.821,-1.8197,-1.8189,-1.8177,-1.8166,-1.8159,-1.8146,-1.8129,-1.812,-1.8115,-1.8108,-1.811,-1.811,-1.8111,-1.8114,-1.8092,-1.8113,-1.8113,-1.8113,-1.8113,-1.8113,0,-1.8278,-1.8268,-1.8261,-1.8247,-1.8241,-1.823,-1.8218,-1.8214,-1.8208,-1.8197,-1.8189,-1.8181,-1.8173,-1.8157,-1.8148,-1.8148,-1.8142,-1.8146,-1.8146,-1.8144,-1.812,-1.812,-1.8152,-1.8152,-1.8152,-1.8152,-1.8152,-1.8152,-1.8287,-1.8283,-1.8274,-1.8266,-1.8257,-1.825,-1.8245,-1.8237,-1.8229,-1.822,-1.8214,-1.8205,-1.8193,-1.8184,-1.8177,-1.8173,-1.8171,-1.8178,-1.8172,-1.8149,-1.8146,-1.8142,-1.8142,-1.8177,-1.8177,-1.8196,-1.8197,-1.8197]},{"header":{"parameterUnit":"m.s-1","parameterCategory":1,"la1":30.2991,"la2":30.254,"lo1":-89.0895,"lo2":-89.0444,"dy":0.0017,"dx":0.0017,"nx":28,"ny":28,"refTime":"2025-07-04T03:00:00:Z","depth":0,"parameterNumber":3,"parameterNumberName":"V-component_of_WINDS"},"data":[0,0,0,0,0,0,0,0,0,0,0,0,0,0,0,0,0,0,0,0,0,0,0,0,0,0,0,0,0,0,0,0,0,0,0,0,0,0,0,0,0,0,0,0,0,0,0,0,0,0,0,0,0,0,0,0,0,0,1.3865,1.3865,0,1.3914,1.3914,1.3915,1.3986,1.3987,1.3988,1.3989,1.4035,1.4035,1.4035,0,0,0,0,0,0,0,0,0,0,0,0,0,1.3828,1.3828,1.3865,1.3865,1.3866,1.3914,1.3914,1.3915,1.3986,1.3987,1.3989,1.399,1.4035,1.4035,1.4035,0,0,0,0,0,0,0,0,0,0,0,0,0,1.3857,1.3829,1.3865,1.3907,1.3911,1.3914,1.3914,1.3915,1.3985,1.3987,1.3989,1.3991,1.4035,1.4035,1.4035,1.3999,0,0,1.4035,1.4035,0,0,0,0,0,0,0,0,1.3855,1.3858,1.39,1.3904,1.3909,1.3946,1.3918,1.3943,1.3985,1.3957,1.3989,1.3992,1.4003,1.4006,1.4011,1.4001,1.4003,1.4035,1.4035,1.4036,1.4036,0,0,0,0,0,0,0,1.3853,1.3857,1.3884,1.3901,1.3906,1.3922,1.3928,1.3923,1.3969,1.396,1.3965,1.397,1.4006,1.4011,1.4013,1.4003,1.4035,1.4036,1.4036,1.4036,1.3964,1.3962,0,0,0,0,0,0,1.3846,1.3854,1.3883,1.3886,1.3886,1.3921,1.3928,1.3932,1.3969,1.3977,1.3968,1.3973,1.401,1.4013,1.4015,1.3973,1.4036,1.4036,1.4036,1.3966,1.3963,1.3961,0,0,0,0,0,0,1.3845,1.3847,1.3881,1.3872,1.3877,1.392,1.3924,1.3932,1.3937,1.3976,1.3984,1.3965,1.4011,1.4015,1.4002,1.3975,1.4036,1.4036,1.3968,1.3965,1.3962,1.389,0,0,0,0,0,0,1.3843,1.3847,1.3834,1.3871,1.3877,1.3868,1.3922,1.3932,1.3937,1.3944,1.3975,1.3982,1.4013,1.4002,1.4002,1.3977,1.4036,1.3971,1.3967,1.3963,1.3894,1.3884,1.3876,0,0,0,0,0,1.3842,1.3811,1.3833,1.3836,1.3863,1.3866,1.387,1.3908,1.3935,1.3922,1.3947,1.3981,1.3979,1.4,1.4001,1.3975,1.3972,1.3968,1.3964,1.3899,1.3886,1.3876,0,0,0,0,0,0,1.3768,1.3816,1.3841,1.3822,1.384,1.3878,1.3863,1.3894,1.3903,1.3909,1.3954,1.3961,1.3942,1.3958,1.398,1.3941,1.3981,1.3976,1.3931,1.392,1.3911,1.3906,1.4036,0,0,0,0,0,1.375,1.375,1.3792,1.3771,1.3779,1.3819,1.3822,1.385,1.387,1.3877,1.3901,1.3918,1.3921,1.3922,1.3927,1.3898,1.3905,1.3881,1.3872,1.3864,1.3859,1.3843,1.3832,1.3947,1.3947,1.3947,0,0,1.3711,1.3738,1.3735,1.3757,1.3774,1.3771,1.3825,1.382,1.3819,1.3876,1.3865,1.3884,1.3905,1.3884,1.3876,1.3897,1.3829,1.3858,1.3852,1.3851,1.3837,1.3826,1.3817,1.3944,1.3944,1.3945,0,0,1.364,1.3661,1.3645,1.3661,1.3687,1.3715,1.3711,1.3745,1.376,1.3751,1.3793,1.3791,1.3796,1.3809,1.3816,1.3751,1.3781,1.3751,1.3702,1.3686,1.3677,1.3669,1.3643,1.3634,1.3747,1.3746,1.3746,0,1.3588,1.3588,1.3632,1.3625,1.3633,1.3687,1.367,1.3683,1.3708,1.3711,1.3735,1.3742,1.376,1.3742,1.3726,1.3731,1.3726,1.3747,1.3675,1.3668,1.3661,1.3637,1.3627,1.3742,1.3743,1.3743,1.3744,0,1.3522,1.3521,1.3505,1.353,1.3536,1.3524,1.3565,1.3565,1.3593,1.3617,1.3606,1.3631,1.3641,1.364,1.3666,1.3625,1.3637,1.3667,1.3707,1.3645,1.3623,1.3615,1.3737,1.3738,1.3739,1.374,0,0,1.3403,1.3454,1.3447,1.3458,1.3491,1.349,1.3481,1.3492,1.3491,1.3507,1.3498,1.3502,1.353,1.3538,1.3567,1.3554,1.3497,1.3586,1.3587,1.3566,1.3451,1.3426,1.3414,1.3519,1.3518,1.3517,1.3448,0,1.3336,1.3323,1.3363,1.3339,1.3337,1.3389,1.3381,1.3399,1.3422,1.3423,1.3448,1.3449,1.3488,1.3492,1.3482,1.3506,1.3474,1.3512,1.3509,1.3508,1.3499,1.3403,1.3377,1.3311,1.344,1.3439,1.3438,0,1.3255,1.3268,1.3244,1.3279,1.328,1.3271,1.3285,1.3286,1.3308,1.3325,1.3335,1.3369,1.336,1.3401,1.3388,1.3413,1.3414,1.3426,1.3425,1.3423,1.3467,1.3397,1.3291,1.328,1.3425,1.3426,1.3427,0,1.3168,1.318,1.3167,1.3175,1.3215,1.3208,1.3224,1.3248,1.3252,1.3264,1.3267,1.3277,1.3281,1.3288,1.3323,1.335,1.3305,1.3349,1.3317,1.3316,1.3303,1.3303,1.3193,1.3308,1.3308,1.3309,1.3309,0,1.3087,1.3069,1.3128,1.3119,1.3101,1.3147,1.3128,1.3149,1.3169,1.3165,1.3211,1.3205,1.3254,1.3253,1.3281,1.3264,1.3267,1.3279,1.3286,1.3273,1.3271,1.3273,1.3277,1.3306,1.3307,1.3307,1.3308,0,1.2984,1.3023,1.3012,1.3052,1.3061,1.3046,1.3079,1.3072,1.3099,1.3092,1.3093,1.3134,1.3136,1.3173,1.3182,1.32,1.3172,1.3189,1.3164,1.3169,1.3133,1.3135,1.3019,1.3005,1.3131,1.313,1.3129,0,1.2929,1.2917,1.2956,1.2957,1.2971,1.2972,1.2977,1.3022,1.3025,1.3049,1.3039,1.3045,1.3051,1.3051,1.3081,1.3087,1.3103,1.3062,1.3104,1.3091,1.3099,1.3098,1.3096,1.3052,1.305,1.3049,1.3048,0,1.2825,1.2845,1.2852,1.2864,1.287,1.2882,1.2896,1.2894,1.2944,1.2945,1.2948,1.2953,1.2963,1.2967,1.298,1.2995,1.3028,1.3035,1.3027,1.3013,1.2998,1.3003,1.3137,1.3036,1.3038,1.3038,1.3039,1.304,1.2743,1.2734,1.276,1.2765,1.2782,1.2795,1.279,1.2817,1.2821,1.2833,1.286,1.2858,1.2879,1.29,1.2912,1.291,1.2931,1.292,1.2917,1.2913,1.2905,1.3001,1.2913,1.2913,1.2914,1.2914,1.2914,0,1.2639,1.2659,1.2664,1.2684,1.2687,1.2722,1.274,1.274,1.2739,1.2757,1.2763,1.2766,1.2771,1.2801,1.2809,1.2801,1.2817,1.2801,1.2801,1.2803,1.2888,1.2892,1.2789,1.2789,1.2789,1.2789,1.2789,1.2789,1.2585,1.2572,1.2595,1.259,1.261,1.261,1.2617,1.2629,1.2643,1.2645,1.2649,1.267,1.2693,1.2703,1.2708,1.2716,1.2716,1.2694,1.2708,1.2785,1.2797,1.2809,1.2813,1.2695,1.2695,1.2623,1.2623,1.2622]}]]